The Dalles, WA

6:32 PM PDT on May 24, 2018 (GMT -0700)
Columbia Gorge Regional-The Dalles

Weather History for KDLS - May, 2012

Change the Weather History Date:

Friday, May 18, 2012

  Actual Average Record
Temperature  
Mean Temperature 58 °F -  
Max Temperature 72 °F 74 °F 97 °F (1968)
Min Temperature 46 °F 49 °F 36 °F (1966)
Degree Days  
Heating Degree Days 6    
Growing Degree Days 8 (Base 50)    
Moisture  
Dew Point 31 °F    
Average Humidity 37    
Maximum Humidity 59    
Minimum Humidity 23    
Precipitation  
Precipitation 0.00 in - - ()
Sea Level Pressure  
Sea Level Pressure 30.06 in    
Wind  
Wind Speed 14 mph (NW)    
Max Wind Speed 21 mph    
Max Gust Speed 29 mph    
Visibility 10 miles    
Events      
Averages and records for this station are not official NWS values.
T = Trace of Precipitation, MM = Missing Value Source: NWS Daily Summary

Daily Weather History Graph

Daily Weather History Graph

Search for Another Location

Airport or City:

Astronomy

May. 18, 2012 Rise Set
Actual Time 5:29 AM PDT 8:33 PM PDT
Civil Twilight 4:54 AM PDT 9:08 PM PDT
Nautical Twilight 4:09 AM PDT 9:54 PM PDT
Astronomical Twilight 3:14 AM PDT 10:49 PM PDT
Moon 4:06 AM PDT (5/18) 6:43 PM PDT (5/18)
Length of Visible Light 16h 14m
Length of Day
15h 03m
Waning Crescent, 4% of the Moon is Illuminated
May 18
Waning Crescent
May 20
New
May 28
First Quarter
Jun 4
Full
Jun 11
Last Quarter

Hourly Weather History & Observations

Time (PDT) Temp. Dew Point Humidity Pressure Visibility Wind Dir Wind Speed Gust Speed Precip Events Conditions
12:53 AM 54.0 °F 30.0 °F 40% 30.01 in 10.0 mi WNW 20.7 mph 25.3 mph N/A   Clear
1:53 AM 50.0 °F 30.9 °F 48% 30.03 in 10.0 mi NW 10.4 mph - N/A   Clear
2:53 AM 50.0 °F 32.0 °F 50% 30.04 in 10.0 mi NW 10.4 mph - N/A   Clear
3:53 AM 48.9 °F 30.9 °F 50% 30.06 in 10.0 mi NNW 13.8 mph - N/A   Clear
4:53 AM 46.9 °F 30.9 °F 54% 30.08 in 10.0 mi West 6.9 mph - N/A   Clear
5:53 AM 46.9 °F 33.1 °F 59% 30.10 in 10.0 mi NNW 6.9 mph - N/A   Clear
6:53 AM 48.9 °F 32.0 °F 52% 30.11 in 10.0 mi WNW 6.9 mph - N/A   Clear
7:53 AM 52.0 °F 32.0 °F 47% 30.12 in 10.0 mi WNW 12.7 mph 20.7 mph N/A   Clear
8:53 AM 55.0 °F 32.0 °F 42% 30.12 in 10.0 mi NW 15.0 mph 19.6 mph N/A   Clear
9:53 AM 57.0 °F 32.0 °F 39% 30.12 in 10.0 mi NW 19.6 mph 26.5 mph N/A   Clear
10:53 AM 59.0 °F 33.1 °F 38% 30.11 in 10.0 mi NW 16.1 mph 26.5 mph N/A   Clear
11:07 AM 60.8 °F 33.8 °F 36% 30.11 in 10.0 mi NNW 17.3 mph 25.3 mph N/A   Clear
11:53 AM 63.0 °F 32.0 °F 31% 30.10 in 10.0 mi NW 16.1 mph 21.9 mph N/A   Clear
12:53 PM 64.9 °F 30.9 °F 28% 30.07 in 10.0 mi NNW 16.1 mph 21.9 mph N/A   Clear
1:53 PM 69.1 °F 30.9 °F 24% 30.06 in 10.0 mi NNW 12.7 mph - N/A   Clear
2:53 PM 68.0 °F 30.0 °F 24% 30.04 in 10.0 mi NNW 11.5 mph - N/A   Clear
3:53 PM 69.1 °F 32.0 °F 25% 30.02 in 10.0 mi NNW 16.1 mph 24.2 mph N/A   Clear
4:53 PM 71.1 °F 30.9 °F 23% 30.02 in 10.0 mi NNW 16.1 mph 21.9 mph N/A   Clear
5:53 PM 66.9 °F 32.0 °F 27% 30.02 in 10.0 mi WNW 16.1 mph - N/A   Clear
6:53 PM 66.0 °F 30.0 °F 26% 30.03 in 10.0 mi WNW 16.1 mph 28.8 mph N/A   Scattered Clouds
7:53 PM 64.0 °F 28.9 °F 27% 30.03 in 10.0 mi WNW 16.1 mph 23.0 mph N/A   Clear
8:53 PM 62.1 °F 28.9 °F 29% 30.03 in 10.0 mi West 13.8 mph 19.6 mph N/A   Clear
9:53 PM 61.0 °F 30.0 °F 31% 30.04 in 10.0 mi Variable 3.5 mph - N/A   Clear
10:53 PM 57.9 °F 33.1 °F 39% 30.05 in 10.0 mi NW 9.2 mph - N/A   Clear
11:53 PM 55.0 °F 33.1 °F 43% 30.04 in 10.0 mi NW 6.9 mph - N/A   Clear